Tracking 28790 objects as of 18-Apr-2024
HD Live streaming from Space Station
objects crossing your sky now

OBJECT C

Track OBJECT C now!
10-day predictions


NORAD ID: 49005
Int'l Code: 2021-062C
Perigee: 500.8 km
Apogee: 508.7 km
Inclination: 97.4 °
Period: 94.6 minutes
Semi major axis: 6875 km
RCS: Unknown
Launch date: July 3, 2021
Source: People's Republic of China (PRC)
Launch site: Taiyaun Space Center, China (TSC)
Your satellite tracking list
Your tracking list is empty




NASA's NSSDC Master Catalog

Two Line Element Set (TLE):
1 49005U 21061C   24109.19090674  .00024412  00000-0  10465-2 0  9991
2 49005  97.4024 171.8698 0005758  87.8340 272.3556 15.22729395154297
Source of the keplerian elements: AFSPC